Weather History for Rochelle, IL

Change the Weather History Date:

Thursday, January 17, 2013

  Actual Average (KRFD) Record (KRFD)
Temperature  
Mean Temperature 22 °F 21 °F  
Max Temperature 32 °F 29 °F 53 °F (1990)
Min Temperature 13 °F 13 °F -25 °F (1982)
Degree Days  
Heating Degree Days 42 44  
Month to date heating degree days 742  
Since 1 July heating degree days 3303  
Cooling Degree Days 0 0  
Month to date cooling degree days 0  
Year to date cooling degree days 0  
Moisture  
Dew Point 16 °F    
Average Humidity 75    
Maximum Humidity 99    
Minimum Humidity 49    
Precipitation  
Precipitation 0.00 in 0.04 in 0.60 in (1941)
Month to date precipitation 0.80  
Year to date precipitation 0.80  
Snow  
Snow 0.00 in 0.30 in 4.70 in (1953)
Month to date snowfall 5.7  
Since 1 July snowfall 18.8  
Snow Depth -    
Sea Level Pressure  
Sea Level Pressure 30.30 in    
Wind  
Wind Speed 7 mph (NW)    
Max Wind Speed 15 mph    
Max Gust Speed 20 mph    
Visibility 10 miles    
Events      
T = Trace of Precipitation, MM = Missing Value Source: NWS Daily Summary

Daily Weather History Graph

Daily Weather History Graph

Search for Another Location

Airport:

Trip Planner

Search our weather history database for the weather conditions in past years. The results will help you decide how hot, cold, wet, or windy it might be!

Date:

Astronomy

Jan. 17, 2013 Rise Set
Actual Time 7:20 AM CST 4:53 PM CST
Civil Twilight 6:49 AM CST 5:23 PM CST
Nautical Twilight 6:15 AM CST 5:57 PM CST
Astronomical Twilight 5:42 AM CST 6:31 PM CST
Moon 10:20 AM CST (1/17) 11:51 PM CST (1/17)
Length of Visible Light 10h 33m
Length of Day
9h 32m
Waxing Crescent, 38% of the Moon is Illuminated
Jan 17
Waxing Crescent
Jan 18
First Quarter
Jan 26
Full
Feb 3
Last Quarter
Feb 10
New

Hourly Weather History & Observations

Time (CST) Temp. Windchill Dew Point Humidity Pressure Visibility Wind Dir Wind Speed Gust Speed Precip Events Conditions
12:15 AM 27.3 °F 22.0 °F 27.0 °F 99% 30.07 in 5.0 mi West 4.6 mph - N/A   Overcast
12:55 AM 29.7 °F - 28.9 °F 97% 30.09 in 7.0 mi Calm Calm - N/A   Overcast
1:15 AM 30.2 °F 26.7 °F 29.7 °F 98% 30.11 in 7.0 mi WNW 3.5 mph - N/A   Overcast
1:35 AM 30.7 °F 24.1 °F 30.0 °F 97% 30.12 in 7.0 mi WNW 6.9 mph - N/A   Overcast
1:55 AM 31.1 °F 24.5 °F 30.2 °F 96% 30.14 in 7.0 mi WNW 6.9 mph - N/A   Overcast
2:15 AM 32.0 °F 26.4 °F 30.7 °F 95% 30.14 in 10.0 mi NNW 5.8 mph - N/A   Overcast
2:35 AM 32.0 °F 23.6 °F 29.3 °F 90% 30.15 in 10.0 mi North 10.4 mph - N/A   Overcast
2:55 AM 31.1 °F 23.1 °F 25.7 °F 80% 30.16 in 10.0 mi North 9.2 mph - N/A   Overcast
3:15 AM 30.2 °F 22.6 °F 25.3 °F 82% 30.18 in 10.0 mi North 8.1 mph - N/A   Overcast
3:35 AM 29.1 °F 24.1 °F 24.3 °F 82% 30.18 in 10.0 mi NNW 4.6 mph - N/A   Mostly Cloudy
3:55 AM 27.0 °F 18.0 °F 22.3 °F 83% 30.19 in 10.0 mi NNW 9.2 mph - N/A   Scattered Clouds
4:15 AM 25.7 °F 17.1 °F 21.0 °F 82% 30.20 in 10.0 mi NNW 8.1 mph - N/A   Clear
4:35 AM 25.5 °F 15.5 °F 20.3 °F 81% 30.21 in 10.0 mi NNW 10.4 mph - N/A   Scattered Clouds
4:55 AM 24.8 °F 15.3 °F 19.4 °F 80% 30.22 in 10.0 mi NNW 9.2 mph - N/A   Clear
5:15 AM 24.4 °F 13.5 °F 19.2 °F 81% 30.23 in 10.0 mi NNW 11.5 mph - N/A   Clear
5:35 AM 24.1 °F 13.1 °F 18.5 °F 79% 30.24 in 10.0 mi NNW 11.5 mph - N/A   Clear
5:55 AM 22.3 °F 13.9 °F 17.6 °F 82% 30.25 in 10.0 mi North 6.9 mph - N/A   Clear
6:15 AM 20.3 °F 12.5 °F 16.7 °F 86% 30.26 in 10.0 mi NNW 5.8 mph - N/A   Clear
6:35 AM 19.4 °F 10.4 °F 16.2 °F 87% 30.26 in 10.0 mi North 6.9 mph - N/A   Clear
6:55 AM 19.9 °F 10.1 °F 15.4 °F 83% 30.28 in 10.0 mi North 8.1 mph - N/A   Clear
7:15 AM 19.0 °F 9.0 °F 13.5 °F 79% 30.29 in 10.0 mi North 8.1 mph - N/A   Clear
7:35 AM 18.0 °F 9.8 °F 12.2 °F 78% 30.30 in 10.0 mi NNW 5.8 mph - N/A   Clear
7:55 AM 19.4 °F 11.5 °F 12.2 °F 74% 30.30 in 10.0 mi NNW 5.8 mph - N/A   Clear
8:15 AM 20.8 °F 13.2 °F 13.3 °F 73% 30.30 in 10.0 mi NNW 5.8 mph - N/A   Clear
8:55 AM 22.1 °F 12.8 °F 14.9 °F 74% 30.32 in 10.0 mi NNW 8.1 mph - N/A   Clear
9:15 AM 22.1 °F 12.8 °F 12.6 °F 67% 30.33 in 10.0 mi NNW 8.1 mph - N/A   Clear
9:35 AM 23.0 °F 13.1 °F 11.3 °F 61% 30.33 in 10.0 mi NNW 9.2 mph - N/A   Clear
9:55 AM 23.2 °F 12.6 °F 10.4 °F 58% 30.34 in 10.0 mi NNW 10.4 mph - N/A   Clear
10:15 AM 24.1 °F 12.0 °F 10.0 °F 55% 30.35 in 10.0 mi NNW 13.8 mph - N/A   Clear
10:35 AM 24.8 °F 12.9 °F 9.9 °F 53% 30.35 in 10.0 mi NW 13.8 mph - N/A   Clear
10:55 AM 25.2 °F 14.4 °F 11.3 °F 56% 30.35 in 10.0 mi NW 11.5 mph - N/A   Clear
11:15 AM 25.7 °F 14.0 °F 12.2 °F 57% 30.35 in 10.0 mi NW 13.8 mph 19.6 mph N/A   Clear
11:35 AM 25.7 °F 14.0 °F 12.0 °F 56% 30.35 in 10.0 mi NW 13.8 mph - N/A   Clear
11:55 AM 25.7 °F 14.6 °F 9.9 °F 51% 30.35 in 10.0 mi NNW 12.7 mph - N/A   Clear
12:15 PM 26.4 °F 15.0 °F 9.5 °F 49% 30.34 in 10.0 mi NNW 13.8 mph - N/A   Clear
12:35 PM 26.4 °F 16.0 °F 10.0 °F 50% 30.34 in 10.0 mi WNW 11.5 mph - N/A   Clear
12:55 PM 27.0 °F 15.6 °F 12.0 °F 53% 30.33 in 10.0 mi NNW 13.8 mph - N/A   Clear
1:15 PM 27.3 °F 17.1 °F 13.3 °F 56% 30.34 in 10.0 mi WNW 11.5 mph - N/A   Clear
1:35 PM 27.0 °F 15.6 °F 12.4 °F 54% 30.34 in 10.0 mi NNW 13.8 mph - N/A   Clear
1:55 PM 26.6 °F 14.7 °F 11.5 °F 53% 30.34 in 10.0 mi NNW 15.0 mph - N/A   Clear
2:15 PM 26.4 °F 15.5 °F 11.3 °F 53% 30.34 in 10.0 mi NNW 12.7 mph - N/A   Clear
2:35 PM 26.6 °F 16.2 °F 12.0 °F 54% 30.34 in 10.0 mi WNW 11.5 mph - N/A   Clear
2:55 PM 26.6 °F 16.8 °F 12.7 °F 56% 30.34 in 10.0 mi WNW 10.4 mph - N/A   Clear
3:15 PM 26.2 °F 16.4 °F 12.9 °F 57% 30.33 in 10.0 mi WNW 10.4 mph - N/A   Clear
3:55 PM 26.1 °F 18.4 °F 13.1 °F 58% 30.34 in 10.0 mi WNW 6.9 mph - N/A   Clear
4:55 PM 23.2 °F 18.7 °F 14.4 °F 69% 30.35 in 10.0 mi WNW 3.5 mph - N/A   Clear
5:15 PM 21.7 °F 15.5 °F 14.7 °F 74% 30.36 in 10.0 mi West 4.6 mph - N/A   Clear
5:35 PM 20.1 °F 13.6 °F 14.7 °F 80% 30.36 in 10.0 mi West 4.6 mph - N/A   Clear
5:55 PM 18.9 °F 9.8 °F 14.4 °F 83% 30.36 in 10.0 mi West 6.9 mph - N/A   Clear
6:35 PM 18.0 °F 11.1 °F 13.5 °F 83% 30.37 in 10.0 mi WSW 4.6 mph - N/A   Clear
7:15 PM 16.7 °F 9.6 °F 13.1 °F 86% 30.38 in 10.0 mi WSW 4.6 mph - N/A   Clear
7:35 PM 15.8 °F 8.6 °F 12.6 °F 87% 30.38 in 10.0 mi WSW 4.6 mph - N/A   Clear
8:15 PM 15.6 °F 8.3 °F 12.2 °F 86% 30.38 in 10.0 mi West 4.6 mph - N/A   Clear
8:55 PM 14.9 °F 6.1 °F 11.7 °F 87% 30.39 in 10.0 mi West 5.8 mph - N/A   Clear
9:15 PM 14.4 °F 6.9 °F 11.1 °F 87% 30.40 in 10.0 mi West 4.6 mph - N/A   Clear
9:35 PM 14.7 °F 4.8 °F 11.7 °F 88% 30.40 in 10.0 mi WSW 6.9 mph - N/A   Clear
9:55 PM 14.0 °F 3.9 °F 11.1 °F 88% 30.39 in 10.0 mi WSW 6.9 mph - N/A   Clear
11:15 PM 14.9 °F 6.1 °F 12.2 °F 89% 30.40 in 10.0 mi West 5.8 mph - N/A   Clear
11:35 PM 13.8 °F - 11.3 °F 90% 30.39 in 10.0 mi Calm Calm - N/A   Clear
11:55 PM 13.3 °F - 10.8 °F 90% 30.39 in 10.0 mi Calm Calm - N/A   Clear